This demonstration page uses our WeatherBlox Daily Observations layout. Learn more.

Left ArrowRight Arrow

39.29038, -76.61219

Hourly Observations for July 11, 2020

Temp ( °F °C ) Dew Point ( °F °C ) Humidity (%) Winds ( mph kmh ) Pressure ( in mb ) Visibility ( mi km ) Precip ( " mm )
12:54 am 00:54 Cloudy 77 25 71 21.7 82 82 WNW 9 15 29.74 1007 8 13 0.00 0.00
1:10 am 01:10 Cloudy with Thunderstorms 76 24.4 71 21.7 85 85 NNW 12 19 29.73 1007 9 14 0.00 0.00
1:47 am 01:47 Cloudy 76 24.4 72 22.2 88 88 Calm 29.71 1006 9 14 0.00 0.00
1:54 am 01:54 Cloudy 76 24.4 72 22.2 88 88 Calm 29.71 1006 9 14 0.00 0.00
2:54 am 02:54 Mostly Cloudy 75 23.9 72 22.2 90 90 SW 3 6 29.70 1006 10 16 0.00 0.00
3:54 am 03:54 Mostly Cloudy 74 23.3 72 22.2 94 94 W 5 7 29.68 1005 10 16 0.00 0.00
4:54 am 04:54 Mostly Cloudy 75 23.9 72 22.2 90 90 W 3 6 29.69 1006 10 16 0.00 0.00
5:54 am 05:54 Mostly Cloudy 75 23.9 72 22.2 90 90 Calm 29.70 1006 10 16 0.00 0.00
6:54 am 06:54 Mostly Cloudy 76 24.4 72 22.2 88 88 Calm 29.70 1006 10 16 0.00 0.00
7:54 am 07:54 Mostly Cloudy 79 26.1 73 22.8 82 82 S 3 6 29.71 1006 10 16 0.00 0.00
8:54 am 08:54 Sunny 80 26.7 72 22.2 76 76 SSW 6 9 29.72 1006 10 16 0.00 0.00
8:58 am 08:58 Mostly Cloudy 80 26.7 72 22.2 76 76 SW 5 7 29.72 1006 10 16 0.00 0.00
9:54 am 09:54 Mostly Cloudy 81 27.2 71 21.7 72 72 SW 5 7 29.72 1006 10 16 0.00 0.00
10:54 am 10:54 Mostly Cloudy 84 28.9 70 21.1 63 63 W 6 9 29.73 1007 10 16 0.00 0.00
11:29 am 11:29 Mostly Cloudy 85 29.4 70 21.1 61 61 W 12 19 29.72 1006 10 16 0.00 0.00
11:54 am 11:54 Mostly Cloudy 86 30 70 21.1 59 59 SW 7 11 29.72 1007 10 16 0.00 0.00
1:54 pm 13:54 Mostly Cloudy 84 28.9 69 20.6 61 61 WNW 14 22 29.70 1006 10 16 0.00 0.00
2:54 pm 14:54 Partly Cloudy 89 31.7 68 20 50 50 W 9 15 29.68 1005 10 16 0.00 0.00
3:54 pm 15:54 Partly Cloudy 89 31.7 64 17.8 43 43 W 17 28 29.67 1005 10 16 0.00 0.00
4:54 pm 16:54 Partly Cloudy 89 31.7 64 17.8 43 43 WNW 18 30 29.68 1005 10 16 0.00 0.00
5:54 pm 17:54 Partly Cloudy 87 30.6 65 18.3 48 48 W 13 20 29.68 1005 10 16 0.00 0.00
6:54 pm 18:54 Mostly Cloudy 85 29.4 66 18.9 53 53 W 14 22 29.70 1006 10 16 0.00 0.00
7:54 pm 19:54 Mostly Cloudy 83 28.3 65 18.3 55 55 W 14 22 29.72 1007 10 16 0.00 0.00
8:54 pm 20:54 Mostly Cloudy 82 27.8 64 17.8 55 55 WNW 12 19 29.74 1007 10 16 0.00 0.00
9:54 pm 21:54 Mostly Cloudy 81 27.2 65 18.3 58 58 W 5 7 29.76 1008 10 16 0.00 0.00
10:54 pm 22:54 Partly Cloudy 78 25.6 65 18.3 64 64 WSW 5 7 29.76 1008 10 16 0.00 0.00
11:54 pm 23:54 Mostly Clear 78 25.6 65 18.3 64 64 WSW 3 6 29.77 1008 10 16 0.00 0.00

Powered by AerisWeather